[[{"header":{"parameterUnit":"m.s-1","parameterCategory":1,"la1":30.2991,"la2":30.254,"lo1":-89.0895,"lo2":-89.0444,"dy":0.0017,"dx":0.0017,"nx":28,"ny":28,"refTime":"2024-06-18T03:00:00:Z","depth":0,"parameterNumber":2,"parameterNumberName":"U-component_of_WINDS"},"data":[0,0,0,0,0,0,0,0,0,0,0,0,0,0,0,0,0,0,0,0,0,0,0,0,0,0,0,0,0,0,0,0,0,0,0,0,0,0,0,0,0,0,0,0,0,0,0,0,0,0,0,0,0,0,0,0,0,0,-7.118,-7.1181,0,-7.1219,-7.1219,-7.122,-7.0987,-7.098,-7.0974,-7.0967,-7.1015,-7.1022,-7.103,0,0,0,0,0,0,0,0,0,0,0,0,0,-7.0913,-7.0919,-7.118,-7.1181,-7.1181,-7.1219,-7.1219,-7.122,-7.0988,-7.098,-7.0972,-7.0964,-7.1013,-7.1022,-7.1031,0,0,0,0,0,0,0,0,0,0,0,0,0,-7.0998,-7.0921,-7.118,-7.107,-7.106,-7.1219,-7.1219,-7.122,-7.099,-7.098,-7.097,-7.0961,-7.101,-7.1021,-7.1032,-7.13,0,0,-7.1066,-7.1071,0,0,0,0,0,0,0,0,-7.0994,-7.1008,-7.1086,-7.1078,-7.1067,-7.1088,-7.1142,-7.1247,-7.0992,-7.1017,-7.0967,-7.0956,-7.1048,-7.1055,-7.1085,-7.1302,-7.1304,-7.1067,-7.1074,-7.1078,-7.1082,0,0,0,0,0,0,0,-7.0988,-7.1005,-7.1195,-7.1087,-7.1076,-7.1021,-7.1022,-7.1161,-7.1088,-7.1014,-7.0997,-7.1005,-7.1041,-7.1075,-7.1084,-7.1305,-7.1067,-7.1077,-7.1083,-7.1088,-7.1743,-7.1753,0,0,0,0,0,0,-7.0996,-7.1002,-7.1194,-7.1197,-7.1005,-7.1034,-7.1035,-7.1091,-7.1086,-7.1075,-7.1013,-7.0994,-7.106,-7.1071,-7.1085,-7.1396,-7.1078,-7.1089,-7.1095,-7.1732,-7.1745,-7.1757,0,0,0,0,0,0,-7.0991,-7.1015,-7.1193,-7.1095,-7.1113,-7.1049,-7.1114,-7.1097,-7.113,-7.1085,-7.1071,-7.106,-7.1053,-7.1069,-7.1247,-7.1395,-7.1094,-7.1104,-7.172,-7.1736,-7.1751,-7.2024,0,0,0,0,0,0,-7.0984,-7.1015,-7.1114,-7.1099,-7.1119,-7.1353,-7.1123,-7.1105,-7.1149,-7.1124,-7.1125,-7.1116,-7.1046,-7.1232,-7.1258,-7.1405,-7.1113,-7.1706,-7.1727,-7.1746,-7.2001,-7.2047,-7.2087,0,0,0,0,0,-7.0975,-7.1192,-7.1121,-7.1145,-7.1242,-7.1362,-7.1374,-7.1287,-7.1162,-7.1262,-7.1233,-7.1116,-7.1375,-7.1252,-7.128,-7.1432,-7.1697,-7.1721,-7.1745,-7.1982,-7.2038,-7.2086,0,0,0,0,0,0,-7.123,-7.1188,-7.1108,-7.1326,-7.1349,-7.1323,-7.1446,-7.1349,-7.141,-7.1385,-7.1276,-7.1279,-7.1475,-7.1472,-7.1335,-7.1691,-7.1514,-7.1545,-7.1685,-7.1738,-7.178,-7.1776,-7.1122,0,0,0,0,0,-7.1311,-7.1409,-7.1368,-7.1564,-7.158,-7.1512,-7.1561,-7.1491,-7.1512,-7.1522,-7.1505,-7.1532,-7.1619,-7.1679,-7.1756,-7.2,-7.1997,-7.2119,-7.2162,-7.2197,-7.2224,-7.2352,-7.2405,-7.1836,-7.1836,-7.1835,0,0,-7.148,-7.1469,-7.1538,-7.1615,-7.1624,-7.1731,-7.1522,-7.1643,-7.1721,-7.1541,-7.1706,-7.1696,-7.1719,-7.1931,-7.2023,-7.1934,-7.2381,-7.2228,-7.2256,-7.2264,-7.2382,-7.2436,-7.2484,-7.1852,-7.1849,-7.1847,0,0,-7.1841,-7.1843,-7.2005,-7.2019,-7.2035,-7.1988,-7.2028,-7.2017,-7.2002,-7.2166,-7.2032,-7.2125,-7.2278,-7.2298,-7.2329,-7.2699,-7.2593,-7.2728,-7.295,-7.3076,-7.312,-7.3159,-7.329,-7.3338,-7.2756,-7.2757,-7.2757,0,-7.2049,-7.2201,-7.2102,-7.2231,-7.2269,-7.2108,-7.2272,-7.2291,-7.2334,-7.2365,-7.2264,-7.245,-7.2455,-7.2668,-7.2758,-7.2789,-7.2831,-7.2726,-7.3121,-7.316,-7.3195,-7.3318,-7.3368,-7.2773,-7.2771,-7.2769,-7.2768,0,-7.2456,-7.2564,-7.2693,-7.2735,-7.2787,-7.2935,-7.2859,-7.2925,-7.2851,-7.2816,-7.2986,-7.2985,-7.3059,-7.3105,-7.3036,-7.331,-7.3253,-7.314,-7.2959,-7.3267,-7.338,-7.3427,-7.2796,-7.279,-7.2785,-7.2781,0,0,-7.2977,-7.2961,-7.301,-7.3026,-7.3032,-7.3115,-7.3256,-7.3324,-7.3382,-7.3419,-7.3533,-7.3666,-7.3559,-7.3595,-7.3527,-7.3638,-7.3929,-7.3509,-7.3508,-7.3585,-7.4229,-7.4313,-7.4369,-7.3859,-7.3868,-7.3875,-7.4226,0,-7.3328,-7.3563,-7.3477,-7.3719,-7.3817,-7.3666,-7.3788,-7.3807,-7.3778,-7.3859,-7.3828,-7.3923,-7.3776,-7.3796,-7.3899,-7.3872,-7.4056,-7.3845,-7.3966,-7.3971,-7.3962,-7.4429,-7.4518,-7.485,-7.427,-7.4278,-7.4283,0,-7.3768,-7.3818,-7.4069,-7.4056,-7.4094,-7.4205,-7.4261,-7.434,-7.4359,-7.433,-7.437,-7.4278,-7.4417,-7.4239,-7.4428,-7.4287,-7.4332,-7.4326,-7.4337,-7.4343,-7.4144,-7.4446,-7.4953,-7.5003,-7.4352,-7.4347,-7.4342,0,-7.4121,-7.4251,-7.4416,-7.4436,-7.4427,-7.4508,-7.4508,-7.4516,-7.4563,-7.4614,-7.4643,-7.4712,-7.4749,-7.4804,-7.4734,-7.4611,-7.4934,-7.475,-7.4915,-7.4917,-7.4988,-7.4984,-7.5508,-7.5022,-7.5021,-7.502,-7.5019,0,-7.452,-7.4679,-7.4574,-7.4676,-7.485,-7.4752,-7.4927,-7.4911,-7.492,-7.5018,-7.4894,-7.4988,-7.4891,-7.4977,-7.4924,-7.5089,-7.5107,-7.5089,-7.5072,-7.5099,-7.5101,-7.5125,-7.5099,-7.5033,-7.503,-7.5027,-7.5025,0,-7.4942,-7.4879,-7.5049,-7.5026,-7.5024,-7.5153,-7.5133,-7.5228,-7.519,-7.5316,-7.534,-7.5282,-7.5377,-7.5313,-7.541,-7.5374,-7.5589,-7.5542,-7.5582,-7.5568,-7.5735,-7.572,-7.6291,-7.6361,-7.5833,-7.5838,-7.5842,0,-7.52,-7.5318,-7.5307,-7.5361,-7.5369,-7.546,-7.5506,-7.5415,-7.5469,-7.5498,-7.559,-7.5674,-7.5735,-7.5896,-7.5864,-7.5938,-7.589,-7.6085,-7.59,-7.5923,-7.5891,-7.5883,-7.5894,-7.6122,-7.6129,-7.6134,-7.6138,0,-7.5664,-7.5626,-7.5696,-7.5756,-7.5814,-7.5857,-7.5891,-7.5944,-7.5852,-7.5919,-7.6013,-7.6062,-7.6159,-7.6244,-7.6305,-7.6308,-7.6209,-7.6197,-7.6238,-7.6265,-7.6282,-7.6273,-7.5681,-7.6183,-7.6179,-7.6175,-7.6173,-7.6171,-7.6009,-7.6106,-7.6113,-7.6195,-7.621,-7.6245,-7.6331,-7.6304,-7.638,-7.6449,-7.6392,-7.6505,-7.6521,-7.6592,-7.6607,-7.6695,-7.6616,-7.6677,-7.6692,-7.6708,-7.673,-7.627,-7.6707,-7.6705,-7.6704,-7.6703,-7.6702,0,-7.6464,-7.6461,-7.6537,-7.6586,-7.6652,-7.655,-7.6582,-7.6644,-7.6744,-7.6766,-7.6828,-7.6937,-7.7019,-7.6994,-7.7068,-7.7143,-7.71,-7.7166,-7.7158,-7.716,-7.6798,-7.6753,-7.7199,-7.7199,-7.7199,-7.7199,-7.7199,-7.7199,-7.6708,-7.6866,-7.683,-7.6995,-7.6991,-7.7097,-7.7124,-7.7156,-7.7172,-7.7297,-7.7364,-7.7346,-7.735,-7.7422,-7.7494,-7.7484,-7.7517,-7.7599,-7.7574,-7.7235,-7.7186,-7.7139,-7.7096,-7.7608,-7.7608,-7.7928,-7.7931,-7.7933]},{"header":{"parameterUnit":"m.s-1","parameterCategory":1,"la1":30.2991,"la2":30.254,"lo1":-89.0895,"lo2":-89.0444,"dy":0.0017,"dx":0.0017,"nx":28,"ny":28,"refTime":"2024-06-18T03:00:00:Z","depth":0,"parameterNumber":3,"parameterNumberName":"V-component_of_WINDS"},"data":[0,0,0,0,0,0,0,0,0,0,0,0,0,0,0,0,0,0,0,0,0,0,0,0,0,0,0,0,0,0,0,0,0,0,0,0,0,0,0,0,0,0,0,0,0,0,0,0,0,0,0,0,0,0,0,0,0,0,-1.1493,-1.1492,0,-1.1482,-1.1482,-1.1482,-1.1511,-1.1512,-1.1513,-1.1514,-1.1499,-1.1498,-1.1496,0,0,0,0,0,0,0,0,0,0,0,0,0,-1.1532,-1.1531,-1.1493,-1.1492,-1.1492,-1.1482,-1.1482,-1.1482,-1.1511,-1.1512,-1.1513,-1.1514,-1.1499,-1.1498,-1.1496,0,0,0,0,0,0,0,0,0,0,0,0,0,-1.1517,-1.153,-1.1493,-1.1506,-1.1507,-1.1482,-1.1482,-1.1482,-1.1511,-1.1512,-1.1513,-1.1515,-1.15,-1.1498,-1.1496,-1.1457,0,0,-1.149,-1.149,0,0,0,0,0,0,0,0,-1.1518,-1.1516,-1.1504,-1.1505,-1.1506,-1.1499,-1.149,-1.1473,-1.151,-1.1509,-1.1514,-1.1515,-1.1498,-1.1496,-1.1491,-1.1457,-1.1456,-1.149,-1.1489,-1.1488,-1.1488,0,0,0,0,0,0,0,-1.1519,-1.1516,-1.1488,-1.1504,-1.1505,-1.151,-1.151,-1.1487,-1.1496,-1.1509,-1.1511,-1.151,-1.1498,-1.1493,-1.1491,-1.1456,-1.149,-1.1489,-1.1488,-1.1487,-1.1385,-1.1383,0,0,0,0,0,0,-1.1519,-1.1517,-1.1489,-1.1488,-1.1515,-1.1508,-1.1508,-1.15,-1.1496,-1.1497,-1.1509,-1.1511,-1.1495,-1.1493,-1.149,-1.1442,-1.1488,-1.1487,-1.1486,-1.1386,-1.1384,-1.1383,0,0,0,0,0,0,-1.152,-1.1516,-1.1489,-1.1503,-1.15,-1.1506,-1.1497,-1.1499,-1.1493,-1.1496,-1.1497,-1.1502,-1.1496,-1.1493,-1.1465,-1.1442,-1.1486,-1.1484,-1.1388,-1.1386,-1.1383,-1.1346,0,0,0,0,0,0,-1.1521,-1.1516,-1.1503,-1.1503,-1.1499,-1.1465,-1.1496,-1.1498,-1.1491,-1.1494,-1.1489,-1.149,-1.1497,-1.1467,-1.1463,-1.144,-1.1483,-1.139,-1.1387,-1.1384,-1.1349,-1.1342,-1.1337,0,0,0,0,0,-1.1522,-1.1493,-1.1502,-1.1499,-1.1483,-1.1464,-1.1462,-1.1472,-1.1489,-1.1474,-1.1475,-1.149,-1.1445,-1.1464,-1.1459,-1.1436,-1.1392,-1.1388,-1.1384,-1.1352,-1.1344,-1.1337,0,0,0,0,0,0,-1.149,-1.1493,-1.1504,-1.1474,-1.1468,-1.1469,-1.1451,-1.1463,-1.1452,-1.1455,-1.1467,-1.1466,-1.1434,-1.1432,-1.1453,-1.1396,-1.1421,-1.1416,-1.1398,-1.139,-1.1384,-1.1384,-1.1481,0,0,0,0,0,-1.1479,-1.1465,-1.1468,-1.1441,-1.1438,-1.1445,-1.1437,-1.1445,-1.1439,-1.1437,-1.1436,-1.1428,-1.1412,-1.1402,-1.1387,-1.1349,-1.1347,-1.133,-1.1324,-1.1319,-1.1314,-1.129,-1.1281,-1.1371,-1.1371,-1.1371,0,0,-1.1457,-1.1457,-1.1447,-1.1435,-1.1432,-1.1414,-1.1443,-1.1424,-1.1411,-1.1434,-1.1406,-1.1405,-1.1397,-1.1363,-1.1348,-1.136,-1.1289,-1.1314,-1.131,-1.1308,-1.1285,-1.1277,-1.1269,-1.1368,-1.1369,-1.1369,0,0,-1.1407,-1.1408,-1.1384,-1.138,-1.1375,-1.1379,-1.1373,-1.1371,-1.1372,-1.1345,-1.1361,-1.1344,-1.1317,-1.1309,-1.1302,-1.1247,-1.1259,-1.1242,-1.1209,-1.1185,-1.1178,-1.1172,-1.1149,-1.1141,-1.1238,-1.1237,-1.1237,0,-1.138,-1.1357,-1.137,-1.1349,-1.1342,-1.1363,-1.1337,-1.1332,-1.1322,-1.1315,-1.133,-1.1294,-1.129,-1.1253,-1.1239,-1.1234,-1.1225,-1.1242,-1.1178,-1.1172,-1.1166,-1.1144,-1.1136,-1.1235,-1.1235,-1.1236,-1.1236,0,-1.1321,-1.1305,-1.1286,-1.1276,-1.1266,-1.1243,-1.125,-1.1239,-1.1247,-1.1249,-1.1219,-1.1215,-1.1199,-1.1191,-1.1199,-1.1153,-1.1161,-1.1177,-1.1202,-1.1155,-1.1135,-1.1127,-1.1232,-1.1233,-1.1233,-1.1234,0,0,-1.1251,-1.1248,-1.124,-1.1235,-1.123,-1.1216,-1.1192,-1.1177,-1.1165,-1.1157,-1.1135,-1.1111,-1.1125,-1.1116,-1.1123,-1.1103,-1.1055,-1.1121,-1.1121,-1.1106,-1.0999,-1.0985,-1.0976,-1.1063,-1.1062,-1.1061,-1.0999,0,-1.12,-1.1161,-1.1171,-1.1131,-1.1114,-1.1132,-1.1111,-1.1104,-1.1105,-1.1088,-1.1089,-1.107,-1.1091,-1.1086,-1.1067,-1.1065,-1.1033,-1.107,-1.104,-1.1039,-1.1039,-1.0966,-1.0952,-1.0893,-1.0991,-1.099,-1.0989,0,-1.1135,-1.1124,-1.1083,-1.1078,-1.1071,-1.1052,-1.1037,-1.1023,-1.1014,-1.1015,-1.1005,-1.1015,-1.0988,-1.1015,-1.0976,-1.1001,-1.0989,-1.0986,-1.0984,-1.098,-1.1009,-1.0956,-1.0876,-1.0866,-1.0977,-1.0978,-1.0979,0,-1.1083,-1.1059,-1.103,-1.1025,-1.102,-1.1005,-1.1002,-1.0995,-1.0984,-1.0971,-1.0963,-1.0946,-1.0936,-1.0922,-1.0925,-1.0946,-1.0884,-1.0913,-1.0882,-1.0881,-1.0866,-1.0867,-1.078,-1.0864,-1.0864,-1.0864,-1.0864,0,-1.1023,-1.0996,-1.1007,-1.0989,-1.0958,-1.0969,-1.0937,-1.0936,-1.0929,-1.0909,-1.0924,-1.0904,-1.0912,-1.0892,-1.0895,-1.086,-1.0856,-1.0854,-1.0855,-1.0851,-1.0851,-1.0842,-1.0845,-1.0862,-1.0862,-1.0863,-1.0863,0,-1.096,-1.0966,-1.0936,-1.0933,-1.0932,-1.0908,-1.0905,-1.0886,-1.0888,-1.0862,-1.0856,-1.0858,-1.0834,-1.0838,-1.0812,-1.0813,-1.0769,-1.0776,-1.0772,-1.0772,-1.074,-1.0742,-1.0642,-1.0628,-1.0723,-1.0722,-1.0722,0,-1.092,-1.09,-1.0895,-1.0883,-1.0879,-1.086,-1.0849,-1.0858,-1.0845,-1.0832,-1.0814,-1.0793,-1.0776,-1.0737,-1.0734,-1.0713,-1.0717,-1.0684,-1.0714,-1.071,-1.0712,-1.0712,-1.0708,-1.0677,-1.0676,-1.0675,-1.0674,0,-1.0847,-1.0851,-1.0836,-1.082,-1.0807,-1.0795,-1.0784,-1.0773,-1.0781,-1.0765,-1.0742,-1.0729,-1.0702,-1.0678,-1.0658,-1.0652,-1.0662,-1.0665,-1.0656,-1.0651,-1.0648,-1.0645,-1.0752,-1.0667,-1.0667,-1.0668,-1.0668,-1.0669,-1.0792,-1.0774,-1.0767,-1.0748,-1.0741,-1.073,-1.0712,-1.0711,-1.0692,-1.0672,-1.0678,-1.0651,-1.0639,-1.0613,-1.0604,-1.0581,-1.0593,-1.0581,-1.0577,-1.0573,-1.0568,-1.0654,-1.0577,-1.0578,-1.0578,-1.0578,-1.0578,0,-1.0717,-1.0713,-1.0696,-1.0681,-1.0665,-1.0679,-1.0667,-1.0652,-1.0629,-1.0618,-1.0601,-1.0572,-1.0549,-1.0543,-1.052,-1.0502,-1.0506,-1.0495,-1.0495,-1.0493,-1.056,-1.0569,-1.0492,-1.0492,-1.0492,-1.0492,-1.0492,-1.0492,-1.0676,-1.0645,-1.0647,-1.0611,-1.0607,-1.0582,-1.0573,-1.0561,-1.0553,-1.052,-1.0502,-1.0499,-1.0489,-1.0465,-1.0443,-1.0442,-1.0431,-1.0417,-1.0417,-1.048,-1.0489,-1.0497,-1.0504,-1.0416,-1.0416,-1.0351,-1.0351,-1.035]}]]